Pagina principale
METAR-TAF:

METAR-TAF

Aeroporti :

Biserta, Tunisia

latitudine: 37-15N, longitudine: 009-48E, altezza: 5 m

Osservazione

Il bollettino è stato emesso 1 ora e 35 minuti fa, alle 10:00 UTC
Vento 10 kt da est/sud-est
Temperature 24°C
Umidità 74%
Pressione 1012 hPa
Visibilità 10 km o più
Poco nuvoloso ad un'altezza di 2000 ft

METAR: DTTB 151000Z 11010KT 9999 FEW020 24/19 Q1012

Ora: 12:35 (11:35 UTC)


TAF: mancante

Osservazioni e previsioni meteorologiche di più di 4000 aeroporti (messaggi METAR e TAF).

Le stazioni disponibili sono rappresentate dai dischi gialli e rossi sulla carta.

Puntare il mouse per vedere il nome della stazione.

Clicca sopra per visualizzare le osservazioni e previsioni meteorologiche.

Per cambiare la mappa : fare clic sui pulsanti verdi con una croce nera per ingrandire, il pulsante verde con un trattino per diminuire, o sulla freccia verde per le mappe adiacenti.


METAR-TAF: